Skip Page Navigation
NASA JPL Caltech
NASA Logo - Jet Propulsion Laboratory + View the NASA Portal
+ Near-Earth Object (NEO) Program
Search JPL
JPL Home Earth Solar System Stars & Galaxies Technology
JPL Solar System Dynamics
BODIES ORBITS EPHEMERIDES TOOLS PHYSICAL DATA DISCOVERY FAQ SITE MAP
JPL Small-Body Database Browser
Search: [ help ]  
(2005 EA)
Classification: Apollo [NEO, PHA]          SPK-ID: 3273446
Ephemeris | Orbit Diagram | Orbital Elements | Physical Parameters | Close-Approach Data ]

[ hide orbit diagram ]
Orbit Diagram
Note: Make sure you have Java enabled on your browser to see the applet. This applet is provided as a 3D orbit visualization tool. The applet was implemented using 2-body methods, and hence should not be used for determining accurate long-term trajectories (over several years or decades) or planetary encounter circumstances. For accurate long-term ephemerides, please instead use our Horizons system.
Orbit Viewer

Additional Notes: the orbits shown in the applet are color coded. The planets are white lines, and the asteroid/comet is a blue line. The bright white line indicates the portion of the orbit that is above the ecliptic plane, and the darker portion is below the ecliptic plane. Likewise for the asteroid/comet orbit, the light blue indicates the portion above the ecliptic plane, and the dark blue the portion below the ecliptic plane.

Orbit Viewer applet originally written and kindly provided by Osamu Ajiki (AstroArts), and further modified by Ron Baalke (JPL).


Orbital Elements at Epoch 2456400.5 (2013-Apr-18.0) TDB
Reference: JPL 17 (heliocentric ecliptic J2000)
 Element Value Uncertainty (1-sigma)   Units 
e .6393871932146934 1.218e-06  
a 1.301359146237372 6.244e-08 AU
q .469286774360389 1.6046e-06 AU
i 14.04820150683978 6.1923e-05 deg
node 346.9877130204894 2.1998e-05 deg
peri 298.7594103275131 0.0001487 deg
M 118.0886978892254 0.00011441 deg
tp 2456222.631102530725
(2012-Oct-22.13110253)
0.00016028 JED
period 542.2432818169077
1.48
3.9026e-05
1.068e-07
d
yr
n .6639086404053532 4.7782e-08 deg/d
Q 2.133431518114355 1.0236e-07 AU
  Orbit Determination Parameters
   # obs. used (total)      71  
   data-arc span      1107 days (3.03 yr)  
   first obs. used      2005-03-01  
   last obs. used      2008-03-12  
   planetary ephem.      DE405  
   SB-pert. ephem.      SB405-CPV-2  
   condition code      1  
   fit RMS      .55172  
   data source      ORB  
   producer      Otto Matic  
   solution date      2011-Sep-14 20:00:33  

Additional Information
 Earth MOID = .0322916 AU 
 T_jup = 4.744 
[ show covariance matrix ]

Ephemeris | Orbit Diagram | Orbital Elements | Physical Parameters | Close-Approach Data ]

Physical Parameter Table
Parameter Symbol Value Units Sigma Reference Notes
absolute magnitude H 20.932 mag .35264 17 autocmod 2.5a

[ show close-approach data ]
Ephemeris | Orbit Diagram | Orbital Elements | Physical Parameters | Close-Approach Data ]
ABOUT SSD CREDITS/AWARDS PRIVACY/COPYRIGHT GLOSSARY LINKS
FirstGov 2013-May-26 02:21 UT
(server date/time)  
NASA Home Page
Site Manager:   Donald K. Yeomans
Webmaster  Alan B. Chamberlin